Tracking 19827 objects as of 22-Aug-2019
HD Live streaming from Space Station
objects crossing your sky now

FLOCK 3P 71

Track FLOCK 3P 71 now!
10-day predictions
FLOCK 3P 71 is classified as:


NORAD ID: 42024
Int'l Code: 2017-008CE
Perigee: 488.7 km
Apogee: 497.0 km
Inclination: 97.4 °
Period: 94.3 minutes
Semi major axis: 6863 km
RCS: Unknown
Launch date: February 15, 2017
Source: United States (US)
Launch site: SRIHARIKOTA (SRI)
aabbcc
Your satellite tracking list
Your tracking list is empty




NASA's NSSDC Master Catalog

Two Line Element Set (TLE):
1 42024U 17008CE  19232.73677927  .00001358  00000-0  54491-4 0  9997
2 42024  97.4030 299.7690 0006045 286.9263  73.1313 15.26704289138475
Source of the keplerian elements: AFSPC